Flag for U.S.A. Weather past 2 weeks in Oceanside, California, U.S.A.

Now
76 °F

Sunny.


Feels Like: 78 °F
Forecast: 63 / 80 °F
Wind: 7 mph from West

Location: Oceanside Weather Reporting Station

Current Time: Jul 23, 2014 at 10:17:54 AM

Latest Report: Jul 23, 2014 at 9:52 AM


Visibility: 10 mi

Pressure: 29.98 "Hg

Humidity: 54%

Dew point: 58 °F

Location of OceansideLocation

Historic Weather in Oceanside — Graph

°F

Oceanside temperature yesterday

Maximum temperature yesterday: 75 °F (at 4:52 PM)
Minimum temperature yesterday: 59 °F (at 4:52 AM)
Average temperature yesterday: 66 °F

Past Weeks' High & Low Weather Summary

 TemperatureHumidityPressure
High78 °F (Jul 21, 1:52 PM)97% (Jul 21, 3:52 AM)30.05 "Hg (Jul 21, 3:52 AM)
Low56 °F (Jul 21, 5:52 AM)48% (Jul 17, 11:52 AM)29.87 "Hg (Jul 13, 4:52 PM)
Average68 °F77%29.97 "Hg
* Reported Jul 8 8:52 AM — Jul 23 8:52 AM, Oceanside, Weather by CustomWeather, © 2014

Note: Actual official high and low records may vary slightly from our data, if they occured in-between our weather recording intervals... More about our weather records

Advertising

Oceanside weather history for previous 24 hours

 ConditionsComfort  
Time TempWeatherWind HumidityBarometerVisibility
8:52 AM
Jul 23
72 °FSunny.No wind64%30.00 "Hg10 mi
7:52 AM67 °FSunny.No wind73%30.00 "Hg10 mi
6:52 AM60 °FClear.No wind90%30.00 "Hg10 mi
5:52 AM58 °FClear.No wind93%29.98 "Hg10 mi
4:52 AM57 °FClear.No wind93%29.98 "Hg10 mi
3:52 AM58 °FClear.No wind93%29.98 "Hg10 mi
2:52 AM58 °FClear.No wind93%29.99 "Hg10 mi
1:52 AM58 °FClear.No wind93%30.00 "Hg10 mi
12:52 AM61 °FClear.No wind90%29.99 "Hg10 mi
10:52 PM
Jul 22
64 °FClear.No wind84%30.00 "Hg10 mi
9:52 PM67 °FClear.No wind85%30.00 "Hg10 mi
8:52 PM69 °FSunny.8 mph81%29.98 "Hg10 mi
7:52 PM70 °FSunny.6 mph73%29.96 "Hg10 mi
6:52 PM71 °FSunny.12 mph73%29.96 "Hg10 mi
5:52 PM74 °FSunny.12 mph67%29.98 "Hg10 mi
4:52 PM75 °FSunny.9 mph66%29.99 "Hg10 mi
Weather by CustomWeather, © 2014

See weather overviewHow to use our weather pages